LSGGLFLC

Guest
Details From LSGG - Geneva
To LFLC - Clermont-Ferrand_Auvergne
Flight Number -
Tags generated
Created
Modified
Stats Distance 125 nm / 232 km
Max Altitude 8,400 ft / 2,560 m
Waypoints 3
Social Downloads 1
Likes 0
Share

Download

Looking for another format? Having issues loading an existing format? Contact us
Advertisement - Login to hide

Notes

Basic altitude profile: - Ascent Rate: 1500ft/min - Ascent Speed: 180kts - Cruise Altitude: 15000ft - Cruise Speed: 250kts - Descent Rate: 1100ft/min - Descent Speed: 180kts Options: - Use NATs: no - Use PACOTS: no - Use low airways: yes - Use high airways: yes

Route

LSGG NINTU LFLC

ID Type Via Altitude (ft/m) Position (lat/lon) Dist (leg/tot) Name
O LSGG APT - 0 / 0 46.23775 / 6.10617 - / 0 nm Geneva
NINTU FIX - 8,400 / 2,560 46.14722 / 5.55306 23 / 23 nm
O LFLC APT - 0 / 0 45.78671 / 3.16997 101 / 125 nm Clermont-Ferrand_Auvergne

Altitude Profile

Advertisement - Login to hide

LSGG

Details ICAO LSGG (GVA)
Name Geneva
Region Switzerland
Timezone Europe/Zurich (UTC+2.0)
Stats Elevation 1,411 ft / 430 m (AMSL)
Location 46.238100° 6.109010°
Runways 1
Magnetic Variation 2.318° E

METAR

LSGG 040220Z AUTO VRB01KT 9999 BKN031 13/11 Q1023 NOSIG

Decode

TAF

TAF TAF LSGG 040225Z 0403/0509 01004KT 9999 OVC030 TX19/0414Z TN13/0409Z TN09/0503Z BECMG 0409/0411 FEW040 PROB30 TEMPO 0503/0506 4800 BCFG

Decode

Departure Runways

ID Width Length Bearing (true/mag) Surface Threshold Overrun Markings Lighting
04 164 ft / 50 m 12,806 ft / 3,903 m 45.42° / 43.10° CONCRETE 1,076 ft / 328 m 0 ft / 0 m PREC-APP CENTERLINE EDGE THRESHOLD CALVERT TDZ REIL-OMNI
22 164 ft / 50 m 12,806 ft / 3,903 m 225.45° / 223.13° CONCRETE 0 ft / 0 m 0 ft / 0 m PREC-APP CENTERLINE EDGE THRESHOLD CALVERT-ILS TDZ REIL-OMNI

LFLC

Details ICAO LFLC (CFE)
Name Clermont-Ferrand Auvergne
Region France
Timezone Europe/Paris (UTC+2.0)
Stats Elevation 1,091 ft / 333 m (AMSL)
Location 45.786700° 3.169980°
Runways 1
Magnetic Variation 1.571° E

METAR

LFLC 040230Z AUTO 24002KT 9999 VV/// 08/08 Q1022 TEMPO 0400 FG

Decode

TAF

TAF AMD LFLC 040211Z 0402/0424 VRB03KT CAVOK TEMPO 0402/0410 0400 FG VV/// PROB40 TEMPO 0409/0411 BKN012

Decode

Destination Runways

ID Width Length Bearing (true/mag) Surface Threshold Overrun Markings Lighting
08 148 ft / 45 m 9,869 ft / 3,008 m 81.95° / 80.38° ASPHALT 0 ft / 0 m 0 ft / 0 m APP CENTERLINE EDGE THRESHOLD
26 148 ft / 45 m 9,869 ft / 3,008 m 261.98° / 260.41° ASPHALT 469 ft / 143 m 0 ft / 0 m PREC-APP CENTERLINE EDGE THRESHOLD ALSF-II TDZ

Approach Navaids

Runway Type Ident Frequency Range Bearing (true/mag) Slope Elevation
26 DME CF 111.10 MHz 27 nm / 50 km - - 1,089 ft / 332 m (AMSL)
26 LOC-ILS CF 111.10 MHz 18 nm / 33 km 261.96° / 260.39 ° - 1,091 ft / 333 m (AMSL)
26 GS CF 111.10 MHz 10 nm / 19 km 261.96° / 260.39 ° 3.00° 1,091 ft / 333 m (AMSL)

Popular Alternatives